Time,TemperatureF,DewpointF,PressureIn,WindDirection,WindDirectionDegrees,WindSpeedMPH,WindSpeedGustMPH,Humidity,HourlyPrecipIn,Conditions,Clouds,dailyrainin,SoftwareType,DateUTC
2013-03-06 00:02:00,27.0,25.0,30.05,NNE,30,5.0,-999.0,92,-99.99,,,-99.99,,2013-03-06 05:02:00,
2013-03-06 00:11:00,27.0,25.0,30.05,NNE,30,5.0,-999.0,92,-99.99,,,-99.99,,2013-03-06 05:11:00,
2013-03-06 00:22:00,27.0,23.0,30.04,NE,40,6.0,-999.0,86,-99.99,,,-99.99,,2013-03-06 05:22:00,
2013-03-06 00:32:00,27.0,25.0,30.04,NE,40,3.0,-999.0,92,-99.99,,,-99.99,,2013-03-06 05:32:00,
2013-03-06 00:42:00,27.0,25.0,30.04,NE,40,5.0,-999.0,92,-99.99,,,-99.99,,2013-03-06 05:42:00,
2013-03-06 00:52:00,27.0,25.0,30.04,NE,40,3.0,-999.0,92,-99.99,,,-99.99,,2013-03-06 05:52:00,
2013-03-06 01:02:00,27.0,25.0,30.04,NE,40,3.0,-999.0,92,-99.99,,,-99.99,,2013-03-06 06:02:00,
2013-03-06 01:11:00,28.0,25.0,30.05,NE,40,5.0,-999.0,86,-99.99,,,-99.99,,2013-03-06 06:11:00,
2013-03-06 01:22:00,28.0,25.0,30.04,NE,50,5.0,-999.0,86,-99.99,,,-99.99,,2013-03-06 06:22:00,
2013-03-06 01:32:00,28.0,25.0,30.04,NE,50,7.0,-999.0,86,-99.99,,,-99.99,,2013-03-06 06:32:00,
2013-03-06 01:42:00,28.0,25.0,30.04,NE,50,7.0,-999.0,86,-99.99,,,-99.99,,2013-03-06 06:42:00,
2013-03-06 01:52:00,28.0,27.0,30.04,NE,40,5.0,-999.0,92,-99.99,,,-99.99,,2013-03-06 06:52:00,
2013-03-06 02:01:00,28.0,27.0,30.04,NE,40,5.0,-999.0,92,-99.99,,,-99.99,,2013-03-06 07:01:00,
2013-03-06 02:11:00,30.0,27.0,30.04,NE,50,7.0,-999.0,86,-99.99,,,-99.99,,2013-03-06 07:11:00,
2013-03-06 02:22:00,30.0,27.0,30.04,NE,40,9.0,-999.0,86,-99.99,,,-99.99,,2013-03-06 07:22:00,
2013-03-06 02:32:00,30.0,27.0,30.04,NE,40,10.0,-999.0,86,-99.99,,,-99.99,,2013-03-06 07:32:00,
2013-03-06 02:42:00,30.0,27.0,30.04,NE,50,10.0,-999.0,86,-99.99,,,-99.99,,2013-03-06 07:42:00,
2013-03-06 02:52:00,30.0,27.0,30.04,NE,40,7.0,-999.0,86,-99.99,,,-99.99,,2013-03-06 07:52:00,
2013-03-06 03:01:00,30.0,27.0,30.04,NE,40,7.0,-999.0,86,-99.99,,,-99.99,,2013-03-06 08:01:00,
2013-03-06 03:11:00,30.0,27.0,30.04,NE,40,9.0,-999.0,86,-99.99,,,-99.99,,2013-03-06 08:11:00,
2013-03-06 03:21:00,30.0,27.0,30.04,NE,40,9.0,-999.0,86,-99.99,,,-99.99,,2013-03-06 08:21:00,
2013-03-06 03:32:00,30.0,27.0,30.03,NNE,30,9.0,-999.0,86,-99.99,,,-99.99,,2013-03-06 08:32:00,
2013-03-06 03:42:00,30.0,27.0,30.03,NE,40,8.0,-999.0,86,-99.99,,,-99.99,,2013-03-06 08:42:00,
2013-03-06 03:52:00,30.0,27.0,30.03,NE,40,9.0,-999.0,86,-99.99,,,-99.99,,2013-03-06 08:52:00,
2013-03-06 04:02:00,30.0,27.0,30.03,NE,40,9.0,-999.0,86,-99.99,,,-99.99,,2013-03-06 09:02:00,
2013-03-06 04:12:00,30.0,27.0,30.03,NE,40,8.0,-999.0,86,-99.99,,,-99.99,,2013-03-06 09:12:00,
2013-03-06 04:21:00,30.0,27.0,30.04,NE,40,8.0,-999.0,86,-99.99,,,-99.99,,2013-03-06 09:21:00,
2013-03-06 04:32:00,30.0,27.0,30.04,NE,40,7.0,-999.0,86,-99.99,,,-99.99,,2013-03-06 09:32:00,
2013-03-06 04:42:00,30.0,27.0,30.03,NE,40,7.0,-999.0,86,-99.99,,,-99.99,,2013-03-06 09:42:00,
2013-03-06 04:52:00,30.0,27.0,30.04,NE,50,7.0,-999.0,86,-99.99,,,-99.99,,2013-03-06 09:52:00,
2013-03-06 05:02:00,30.0,27.0,30.04,NE,50,7.0,-999.0,86,-99.99,,,-99.99,,2013-03-06 10:02:00,
2013-03-06 05:11:00,30.0,27.0,30.04,NE,40,8.0,-999.0,86,-99.99,,,-99.99,,2013-03-06 10:11:00,
2013-03-06 05:22:00,30.0,27.0,30.03,NE,50,9.0,-999.0,86,-99.99,,,-99.99,,2013-03-06 10:22:00,
2013-03-06 05:32:00,30.0,27.0,30.03,NE,50,8.0,-999.0,86,-99.99,,,-99.99,,2013-03-06 10:32:00,
2013-03-06 05:42:00,30.0,27.0,30.04,NE,40,10.0,-999.0,86,-99.99,,,-99.99,,2013-03-06 10:42:00,
2013-03-06 05:52:00,30.0,27.0,30.04,NE,50,10.0,-999.0,86,-99.99,,,-99.99,,2013-03-06 10:52:00,
2013-03-06 06:02:00,30.0,27.0,30.04,NE,50,10.0,-999.0,86,-99.99,,,-99.99,,2013-03-06 11:02:00,
2013-03-06 06:11:00,30.0,27.0,30.04,NE,50,8.0,-999.0,86,-99.99,,,-99.99,,2013-03-06 11:11:00,
2013-03-06 06:22:00,30.0,27.0,30.05,NE,40,9.0,-999.0,86,-99.99,,,-99.99,,2013-03-06 11:22:00,
2013-03-06 06:32:00,30.0,28.0,30.05,NE,50,7.0,-999.0,92,-99.99,,,-99.99,,2013-03-06 11:32:00,
2013-03-06 06:42:00,30.0,28.0,30.05,NE,40,7.0,-999.0,92,-99.99,,,-99.99,,2013-03-06 11:42:00,
2013-03-06 06:52:00,30.0,28.0,30.05,NE,50,7.0,-999.0,92,-99.99,,,-99.99,,2013-03-06 11:52:00,
2013-03-06 07:02:00,30.0,28.0,30.05,NE,50,7.0,-999.0,92,-99.99,,,-99.99,,2013-03-06 12:02:00,
2013-03-06 07:11:00,30.0,28.0,30.05,NE,40,7.0,-999.0,92,-99.99,,,-99.99,,2013-03-06 12:11:00,
2013-03-06 07:22:00,32.0,28.0,30.05,NE,40,9.0,-999.0,86,-99.99,,,-99.99,,2013-03-06 12:22:00,
2013-03-06 07:33:00,32.0,28.0,30.05,NE,40,9.0,16.0,86,-99.99,,,-99.99,,2013-03-06 12:33:00,
2013-03-06 07:42:00,32.0,28.0,30.05,NNE,30,10.0,16.0,86,-99.99,,,-99.99,,2013-03-06 12:42:00,
2013-03-06 07:52:00,32.0,28.0,30.05,NNE,30,10.0,16.0,86,-99.99,,,-99.99,,2013-03-06 12:52:00,
2013-03-06 08:02:00,32.0,28.0,30.05,NNE,30,10.0,16.0,86,-99.99,,,-99.99,,2013-03-06 13:02:00,
2013-03-06 08:12:00,34.0,28.0,30.05,NNE,30,10.0,-999.0,80,-99.99,,,-99.99,,2013-03-06 13:12:00,
2013-03-06 08:22:00,34.0,28.0,30.05,NNE,30,12.0,-999.0,80,-99.99,,,-99.99,,2013-03-06 13:22:00,
2013-03-06 08:32:00,34.0,28.0,30.05,NNE,30,10.0,-999.0,80,-99.99,,,-99.99,,2013-03-06 13:32:00,
2013-03-06 08:42:00,34.0,28.0,30.05,NNE,30,12.0,-999.0,80,-99.99,,,-99.99,,2013-03-06 13:42:00,
2013-03-06 08:52:00,34.0,28.0,30.05,NNE,30,13.0,-999.0,80,-99.99,,,-99.99,,2013-03-06 13:52:00,
2013-03-06 09:01:00,34.0,28.0,30.05,NNE,30,13.0,-999.0,80,-99.99,,,-99.99,,2013-03-06 14:01:00,
2013-03-06 09:11:00,36.0,28.0,30.05,NE,40,10.0,-999.0,74,-99.99,,,-99.99,,2013-03-06 14:11:00,
2013-03-06 09:22:00,36.0,28.0,30.06,NE,40,9.0,-999.0,74,-99.99,,,-99.99,,2013-03-06 14:22:00,
2013-03-06 09:32:00,36.0,30.0,30.06,NE,40,9.0,-999.0,80,-99.99,,,-99.99,,2013-03-06 14:32:00,
2013-03-06 09:42:00,36.0,30.0,30.06,NE,40,13.0,18.0,80,-99.99,,,-99.99,,2013-03-06 14:42:00,
2013-03-06 09:52:00,36.0,30.0,30.06,NE,40,12.0,-999.0,80,-99.99,,,-99.99,,2013-03-06 14:52:00,
2013-03-06 10:02:00,36.0,30.0,30.06,NE,40,12.0,-999.0,80,-99.99,,,-99.99,,2013-03-06 15:02:00,
2013-03-06 10:11:00,37.0,30.0,30.06,NE,40,8.0,16.0,74,-99.99,,,-99.99,,2013-03-06 15:11:00,
2013-03-06 10:22:00,37.0,30.0,30.07,NE,40,10.0,-999.0,74,-99.99,,,-99.99,,2013-03-06 15:22:00,
2013-03-06 10:32:00,37.0,30.0,30.06,NE,40,12.0,16.0,74,-99.99,,,-99.99,,2013-03-06 15:32:00,
2013-03-06 10:42:00,37.0,30.0,30.06,NE,40,10.0,16.0,74,-99.99,,,-99.99,,2013-03-06 15:42:00,
2013-03-06 10:52:00,39.0,30.0,30.06,NNE,30,10.0,-999.0,69,-99.99,,,-99.99,,2013-03-06 15:52:00,
2013-03-06 11:02:00,39.0,30.0,30.06,NNE,30,10.0,-999.0,69,-99.99,,,-99.99,,2013-03-06 16:02:00,
2013-03-06 11:11:00,39.0,30.0,30.05,NNE,30,15.0,18.0,69,-99.99,,,-99.99,,2013-03-06 16:11:00,
2013-03-06 11:21:00,41.0,30.0,30.05,NE,40,15.0,20.0,65,-99.99,,,-99.99,,2013-03-06 16:21:00,
2013-03-06 11:32:00,39.0,30.0,30.05,NE,50,15.0,18.0,69,-99.99,,,-99.99,,2013-03-06 16:32:00,
2013-03-06 11:42:00,39.0,30.0,30.05,NE,50,14.0,18.0,69,-99.99,,,-99.99,,2013-03-06 16:42:00,
2013-03-06 11:52:00,39.0,30.0,30.05,NE,50,9.0,18.0,69,-99.99,,,-99.99,,2013-03-06 16:52:00,
2013-03-06 12:01:00,39.0,30.0,30.05,NE,50,9.0,18.0,69,-99.99,,,-99.99,,2013-03-06 17:01:00,
2013-03-06 12:11:00,39.0,30.0,30.06,NE,50,12.0,-999.0,69,-99.99,,,-99.99,,2013-03-06 17:11:00,
2013-03-06 12:22:00,39.0,28.0,30.06,ENE,70,9.0,-999.0,64,-99.99,,,-99.99,,2013-03-06 17:22:00,
2013-03-06 12:32:00,41.0,28.0,30.06,ENE,60,20.0,25.0,60,-99.99,,,-99.99,,2013-03-06 17:32:00,
2013-03-06 12:42:00,41.0,27.0,30.06,East,80,14.0,25.0,56,-99.99,,,-99.99,,2013-03-06 17:42:00,
2013-03-06 12:52:00,41.0,27.0,30.06,ENE,70,13.0,21.0,56,-99.99,,,-99.99,,2013-03-06 17:52:00,
2013-03-06 13:02:00,41.0,27.0,30.06,ENE,70,13.0,21.0,56,-99.99,,,-99.99,,2013-03-06 18:02:00,
2013-03-06 13:28:00,39.0,28.0,30.06,ENE,60,17.0,22.0,64,-99.99,,,-99.99,,2013-03-06 18:28:00,
2013-03-06 13:42:00,39.0,27.0,30.07,ENE,70,15.0,22.0,60,-99.99,,,-99.99,,2013-03-06 18:42:00,
2013-03-06 13:52:00,39.0,27.0,30.07,ENE,70,15.0,22.0,60,-99.99,,,-99.99,,2013-03-06 18:52:00,
2013-03-06 14:02:00,39.0,27.0,30.07,ENE,70,15.0,22.0,60,-99.99,,,-99.99,,2013-03-06 19:02:00,
2013-03-06 14:11:00,39.0,28.0,30.07,NE,50,14.0,21.0,64,-99.99,,,-99.99,,2013-03-06 19:11:00,
2013-03-06 14:21:00,39.0,27.0,30.07,NE,50,10.0,22.0,60,-99.99,,,-99.99,,2013-03-06 19:21:00,
2013-03-06 14:31:00,39.0,27.0,30.07,NE,50,13.0,24.0,60,-99.99,,,-99.99,,2013-03-06 19:31:00,
2013-03-06 14:42:00,39.0,27.0,30.07,NE,50,14.0,20.0,60,-99.99,,,-99.99,,2013-03-06 19:42:00,
2013-03-06 14:52:00,39.0,25.0,30.07,NE,50,13.0,22.0,55,-99.99,,,-99.99,,2013-03-06 19:52:00,
2013-03-06 15:02:00,39.0,25.0,30.07,NE,50,13.0,22.0,55,-99.99,,,-99.99,,2013-03-06 20:02:00,
2013-03-06 15:12:00,39.0,25.0,30.07,ENE,70,18.0,25.0,55,-99.99,,,-99.99,,2013-03-06 20:12:00,
2013-03-06 15:22:00,39.0,25.0,30.07,NE,40,15.0,24.0,55,-99.99,,,-99.99,,2013-03-06 20:22:00,
2013-03-06 15:32:00,39.0,25.0,30.08,NE,40,16.0,21.0,55,-99.99,,,-99.99,,2013-03-06 20:32:00,
2013-03-06 15:42:00,39.0,25.0,30.08,NE,40,12.0,22.0,55,-99.99,,,-99.99,,2013-03-06 20:42:00,
2013-03-06 15:52:00,39.0,25.0,30.07,ENE,60,14.0,17.0,55,-99.99,,,-99.99,,2013-03-06 20:52:00,
2013-03-06 16:02:00,39.0,25.0,30.07,ENE,60,14.0,17.0,55,-99.99,,,-99.99,,2013-03-06 21:02:00,
2013-03-06 16:12:00,39.0,25.0,30.07,NE,40,12.0,16.0,55,-99.99,,,-99.99,,2013-03-06 21:12:00,
2013-03-06 16:22:00,39.0,25.0,30.08,NE,40,10.0,-999.0,55,-99.99,,,-99.99,,2013-03-06 21:22:00,
2013-03-06 16:32:00,37.0,25.0,30.08,NE,50,12.0,16.0,60,-99.99,,,-99.99,,2013-03-06 21:32:00,
2013-03-06 16:42:00,39.0,25.0,30.08,NNE,30,9.0,16.0,55,-99.99,,,-99.99,,2013-03-06 21:42:00,
2013-03-06 16:51:00,37.0,25.0,30.08,NE,40,13.0,-999.0,60,-99.99,,,-99.99,,2013-03-06 21:51:00,
2013-03-06 17:02:00,37.0,25.0,30.08,NE,40,13.0,-999.0,60,-99.99,,,-99.99,,2013-03-06 22:02:00,
2013-03-06 17:11:00,37.0,25.0,30.09,NE,40,10.0,-999.0,60,-99.99,,,-99.99,,2013-03-06 22:11:00,
2013-03-06 17:22:00,37.0,25.0,30.09,NE,40,10.0,17.0,60,-99.99,,,-99.99,,2013-03-06 22:22:00,
2013-03-06 17:32:00,37.0,25.0,30.09,NE,40,8.0,-999.0,60,-99.99,,,-99.99,,2013-03-06 22:32:00,
2013-03-06 17:42:00,37.0,25.0,30.09,NE,40,8.0,-999.0,60,-99.99,,,-99.99,,2013-03-06 22:42:00,
2013-03-06 17:51:00,37.0,25.0,30.10,NE,40,12.0,-999.0,60,-99.99,,,-99.99,,2013-03-06 22:51:00,
2013-03-06 18:01:00,37.0,25.0,30.10,NE,40,12.0,-999.0,60,-99.99,,,-99.99,,2013-03-06 23:01:00,
2013-03-06 18:11:00,37.0,25.0,30.10,NE,40,10.0,17.0,60,-99.99,,,-99.99,,2013-03-06 23:11:00,
2013-03-06 18:21:00,37.0,25.0,30.11,ENE,60,9.0,-999.0,60,-99.99,,,-99.99,,2013-03-06 23:21:00,
2013-03-06 18:32:00,37.0,25.0,30.12,NE,50,8.0,-999.0,60,-99.99,,,-99.99,,2013-03-06 23:32:00,
2013-03-06 18:42:00,37.0,25.0,30.12,ENE,60,8.0,-999.0,60,-99.99,,,-99.99,,2013-03-06 23:42:00,
2013-03-06 18:52:00,37.0,25.0,30.12,ENE,70,8.0,17.0,60,-99.99,,,-99.99,,2013-03-06 23:52:00,
2013-03-06 19:02:00,37.0,25.0,30.12,ENE,70,8.0,17.0,60,-99.99,,,-99.99,,2013-03-07 00:02:00,
2013-03-06 19:11:00,37.0,25.0,30.12,East,90,16.0,23.0,60,-99.99,,,-99.99,,2013-03-07 00:11:00,
2013-03-06 19:21:00,37.0,25.0,30.13,ENE,70,9.0,-999.0,60,-99.99,,,-99.99,,2013-03-07 00:21:00,
2013-03-06 19:32:00,37.0,25.0,30.12,ENE,70,9.0,18.0,60,-99.99,,,-99.99,,2013-03-07 00:32:00,
2013-03-06 19:42:00,37.0,25.0,30.12,ENE,60,9.0,18.0,60,-99.99,,,-99.99,,2013-03-07 00:42:00,
2013-03-06 19:52:00,37.0,25.0,30.12,ENE,60,13.0,-999.0,60,-99.99,,,-99.99,,2013-03-07 00:52:00,
2013-03-06 20:01:00,37.0,25.0,30.12,ENE,60,13.0,-999.0,60,-99.99,,,-99.99,,2013-03-07 01:01:00,
2013-03-06 20:11:00,37.0,25.0,30.12,ENE,60,9.0,-999.0,60,-99.99,,,-99.99,,2013-03-07 01:11:00,
2013-03-06 20:21:00,37.0,25.0,30.12,ENE,60,8.0,-999.0,60,-99.99,,,-99.99,,2013-03-07 01:21:00,
2013-03-06 20:32:00,37.0,23.0,30.12,ENE,60,12.0,-999.0,55,-99.99,,,-99.99,,2013-03-07 01:32:00,
2013-03-06 20:42:00,37.0,23.0,30.12,ENE,60,9.0,-999.0,55,-99.99,,,-99.99,,2013-03-07 01:42:00,
2013-03-06 20:51:00,37.0,21.0,30.12,NE,50,9.0,-999.0,51,-99.99,,,-99.99,,2013-03-07 01:51:00,
2013-03-06 21:01:00,37.0,21.0,30.12,NE,50,9.0,-999.0,51,-99.99,,,-99.99,,2013-03-07 02:01:00,
2013-03-06 21:11:00,37.0,23.0,30.12,NE,50,10.0,-999.0,55,-99.99,,,-99.99,,2013-03-07 02:11:00,
2013-03-06 21:21:00,36.0,23.0,30.12,NE,40,7.0,-999.0,59,-99.99,,,-99.99,,2013-03-07 02:21:00,
2013-03-06 21:32:00,36.0,23.0,30.12,NE,40,8.0,-999.0,59,-99.99,,,-99.99,,2013-03-07 02:32:00,
2013-03-06 21:41:00,36.0,23.0,30.12,NE,40,8.0,-999.0,59,-99.99,,,-99.99,,2013-03-07 02:41:00,
2013-03-06 21:51:00,36.0,23.0,30.12,NE,40,8.0,-999.0,59,-99.99,,,-99.99,,2013-03-07 02:51:00,
2013-03-06 22:02:00,36.0,21.0,30.12,NE,50,9.0,-999.0,55,-99.99,,,-99.99,,2013-03-07 03:02:00,
2013-03-06 22:11:00,36.0,21.0,30.12,NE,50,8.0,-999.0,55,-99.99,,,-99.99,,2013-03-07 03:11:00,
2013-03-06 22:21:00,36.0,21.0,30.12,NE,40,7.0,-999.0,55,-99.99,,,-99.99,,2013-03-07 03:21:00,
2013-03-06 22:32:00,36.0,21.0,30.12,NNE,30,6.0,-999.0,55,-99.99,,,-99.99,,2013-03-07 03:32:00,
2013-03-06 22:42:00,36.0,23.0,30.12,NNE,30,7.0,-999.0,59,-99.99,,,-99.99,,2013-03-07 03:42:00,
2013-03-06 22:52:00,36.0,21.0,30.12,NNE,30,8.0,-999.0,55,-99.99,,,-99.99,,2013-03-07 03:52:00,
2013-03-06 23:02:00,36.0,21.0,30.12,NNE,30,8.0,-999.0,55,-99.99,,,-99.99,,2013-03-07 04:02:00,
2013-03-06 23:11:00,36.0,21.0,30.11,NNE,30,7.0,-999.0,55,-99.99,,,-99.99,,2013-03-07 04:11:00,
2013-03-06 23:22:00,36.0,21.0,30.11,NE,40,7.0,-999.0,55,-99.99,,,-99.99,,2013-03-07 04:22:00,
2013-03-06 23:32:00,36.0,21.0,30.11,NE,40,7.0,-999.0,55,-99.99,,,-99.99,,2013-03-07 04:32:00,
2013-03-06 23:42:00,36.0,21.0,30.12,NNE,30,7.0,-999.0,55,-99.99,,,-99.99,,2013-03-07 04:42:00,
2013-03-06 23:52:00,36.0,21.0,30.11,NNE,30,8.0,-999.0,55,-99.99,,,-99.99,,2013-03-07 04:52:00,